Weather History for Hereford, TX

Change the Weather History Date:

Saturday, February 16, 2013

  Actual Average (KAMA) Record (KAMA)
Temperature  
Mean Temperature 40 °F 40 °F  
Max Temperature 60 °F 54 °F 81 °F (2011)
Min Temperature 21 °F 27 °F -4 °F (1895)
Degree Days  
Heating Degree Days 24 25  
Month to date heating degree days 416  
Since 1 July heating degree days 3001  
Cooling Degree Days 0 0  
Month to date cooling degree days 0  
Year to date cooling degree days 0  
Moisture  
Dew Point 20 °F    
Average Humidity 55    
Maximum Humidity 93    
Minimum Humidity 19    
Precipitation  
Precipitation 0.00 in 0.01 in 1.58 in (1893)
Month to date precipitation 0.33  
Year to date precipitation 1.05  
Snow  
Snow 0.00 in 0.10 in 12.00 in (1893)
Month to date snowfall 2.1  
Since 1 July snowfall 13.2  
Snow Depth -    
Sea Level Pressure  
Sea Level Pressure 30.22 in    
Wind  
Wind Speed - (North)    
Max Wind Speed -    
Max Gust Speed -    
Visibility 10 miles    
Events      
T = Trace of Precipitation, MM = Missing Value Source: NWS Daily Summary

Daily Weather History Graph

Daily Weather History Graph

Search for Another Location

Airport:

Trip Planner

Search our weather history database for the weather conditions in past years. The results will help you decide how hot, cold, wet, or windy it might be!

Date:

Astronomy

Feb. 16, 2013 Rise Set
Actual Time 7:33 AM CST 6:33 PM CST
Civil Twilight 7:07 AM CST 6:59 PM CST
Nautical Twilight 6:38 AM CST 7:28 PM CST
Astronomical Twilight 6:09 AM CST 7:58 PM CST
Moon 11:05 AM CST (2/16) 12:18 AM CST (2/16)
Length of Visible Light 11h 51m
Length of Day
10h 59m
Waxing Crescent, 39% of the Moon is Illuminated
Feb 16
Waxing Crescent
Feb 17
First Quarter
Feb 25
Full
Mar 4
Last Quarter
Mar 11
New

Hourly Weather History & Observations

Time (CST) Temp. Dew Point Humidity Pressure Visibility Wind Dir Wind Speed Gust Speed Precip Events Conditions
12:15 AM 32.0 °F 23.0 °F 69% 30.36 in 10.0 mi North - - N/A   Clear
12:35 AM 30.2 °F 23.0 °F 75% 30.37 in 10.0 mi North - - N/A   Clear
12:55 AM 28.4 °F 21.2 °F 74% 30.37 in 10.0 mi North - - N/A   Clear
1:15 AM 26.6 °F 21.2 °F 80% 30.38 in 10.0 mi North - - N/A   Clear
1:35 AM 26.6 °F 21.2 °F 80% 30.38 in 10.0 mi North - - N/A   Clear
1:55 AM 26.6 °F 21.2 °F 80% 30.38 in 10.0 mi North - - N/A   Clear
2:15 AM 23.0 °F 19.4 °F 86% 30.39 in 10.0 mi North - - N/A   Clear
2:35 AM 23.0 °F 19.4 °F 86% 30.38 in 10.0 mi North - - N/A   Clear
2:55 AM 23.0 °F 19.4 °F 86% 30.37 in 10.0 mi North - - N/A   Clear
3:15 AM 23.0 °F 19.4 °F 86% 30.37 in 10.0 mi North - - N/A   Clear
3:35 AM 23.0 °F 19.4 °F 86% 30.37 in 10.0 mi North - - N/A   Clear
3:55 AM 21.2 °F 19.4 °F 93% 30.36 in 10.0 mi North - - N/A   Clear
4:15 AM 21.2 °F 19.4 °F 93% 30.35 in 10.0 mi North - - N/A   Clear
4:35 AM 21.2 °F 19.4 °F 93% 30.34 in 10.0 mi North - - N/A   Clear
4:55 AM 21.2 °F 17.6 °F 86% 30.35 in 10.0 mi North - - N/A   Clear
5:15 AM 21.2 °F 17.6 °F 86% 30.35 in 10.0 mi North - - N/A   Clear
5:35 AM 21.2 °F 17.6 °F 86% 30.35 in 10.0 mi North - - N/A   Clear
5:55 AM 23.0 °F 19.4 °F 86% 30.35 in 10.0 mi North - - N/A   Clear
6:15 AM 21.2 °F 17.6 °F 86% 30.35 in 10.0 mi North - - N/A   Clear
6:35 AM 21.2 °F 17.6 °F 86% 30.34 in 10.0 mi North - - N/A   Clear
6:55 AM 21.2 °F 17.6 °F 86% 30.33 in 10.0 mi North - - N/A   Clear
7:15 AM 23.0 °F 19.4 °F 86% 30.33 in 10.0 mi North - - N/A   Clear
7:35 AM 23.0 °F 19.4 °F 86% 30.33 in 10.0 mi North - - N/A   Clear
7:55 AM 23.0 °F 19.4 °F 86% 30.33 in 10.0 mi North - - N/A   Clear
8:15 AM 26.6 °F 19.4 °F 74% 30.33 in 10.0 mi North - - N/A   Clear
8:35 AM 28.4 °F 21.2 °F 74% 30.33 in 10.0 mi North - - N/A   Clear
8:55 AM 30.2 °F 21.2 °F 69% 30.33 in 10.0 mi North - - N/A   Clear
9:15 AM 32.0 °F 23.0 °F 69% 30.33 in 10.0 mi North - - N/A   Clear
9:35 AM 33.8 °F 21.2 °F 60% 30.32 in 10.0 mi North - - N/A   Clear
12:15 PM 50.0 °F 21.2 °F 32% 30.26 in 10.0 mi North - - N/A   Clear
12:35 PM 51.8 °F 21.2 °F 30% 30.24 in 10.0 mi North - - N/A   Clear
12:55 PM 53.6 °F 23.0 °F 30% 30.23 in 10.0 mi North - - N/A   Clear
1:15 PM 53.6 °F 21.2 °F 28% 30.22 in 10.0 mi North - - N/A   Clear
1:35 PM 55.4 °F 21.2 °F 26% 30.20 in 10.0 mi North - - N/A   Clear
1:55 PM 55.4 °F 19.4 °F 25% 30.18 in 10.0 mi North - - N/A   Clear
2:15 PM 57.2 °F 21.2 °F 25% 30.17 in 10.0 mi North - - N/A   Clear
2:35 PM 57.2 °F 17.6 °F 21% 30.16 in 10.0 mi North - - N/A   Clear
2:55 PM 59.0 °F 19.4 °F 22% 30.15 in 10.0 mi North - - N/A   Clear
3:15 PM 59.0 °F 17.6 °F 20% 30.14 in 10.0 mi North - - N/A   Clear
3:35 PM 59.0 °F 17.6 °F 20% 30.13 in 10.0 mi North - - N/A   Clear
3:55 PM 60.8 °F 17.6 °F 19% 30.11 in 10.0 mi North - - N/A   Clear
4:15 PM 60.8 °F 17.6 °F 19% 30.11 in 10.0 mi North - - N/A   Clear
4:35 PM 60.8 °F 17.6 °F 19% 30.11 in 10.0 mi North - - N/A   Clear
4:55 PM 60.8 °F 17.6 °F 19% 30.10 in 10.0 mi North - - N/A   Clear
5:15 PM 59.0 °F 17.6 °F 20% 30.09 in 10.0 mi North - - N/A   Clear
5:35 PM 59.0 °F 15.8 °F 19% 30.09 in 10.0 mi North - - N/A   Clear
5:55 PM 57.2 °F 17.6 °F 21% 30.08 in 10.0 mi North - - N/A   Clear
6:15 PM 53.6 °F 19.4 °F 26% 30.08 in 10.0 mi North - - N/A   Clear
6:35 PM 50.0 °F 17.6 °F 28% 30.07 in 10.0 mi North - - N/A   Clear
6:55 PM 46.4 °F 17.6 °F 32% 30.08 in 10.0 mi North - - N/A   Clear
7:15 PM 44.6 °F 19.4 °F 37% 30.08 in 10.0 mi North - - N/A   Clear
7:35 PM 44.6 °F 19.4 °F 37% 30.08 in 10.0 mi North - - N/A   Clear
7:55 PM 42.8 °F 19.4 °F 39% 30.08 in 10.0 mi North - - N/A   Clear
8:15 PM 39.2 °F 19.4 °F 45% 30.08 in 10.0 mi North - - N/A   Clear
8:35 PM 37.4 °F 21.2 °F 52% 30.08 in 10.0 mi North - - N/A   Clear
8:55 PM 39.2 °F 21.2 °F 49% 30.08 in 10.0 mi North - - N/A   Clear
9:15 PM 37.4 °F 21.2 °F 52% 30.08 in 10.0 mi North - - N/A   Clear
9:35 PM 35.6 °F 21.2 °F 56% 30.07 in 10.0 mi North - - N/A   Clear
9:55 PM 35.6 °F 21.2 °F 56% 30.07 in 10.0 mi North - - N/A   Clear
10:15 PM 35.6 °F 21.2 °F 56% 30.07 in 10.0 mi North - - N/A   Clear
10:35 PM 37.4 °F 19.4 °F 48% 30.06 in 10.0 mi North - - N/A   Clear
10:55 PM 35.6 °F 19.4 °F 52% 30.06 in 10.0 mi North - - N/A   Clear
11:15 PM 35.6 °F 19.4 °F 52% 30.05 in 10.0 mi North - - N/A   Clear
11:35 PM 35.6 °F 19.4 °F 52% 30.04 in 10.0 mi North - - N/A   Clear
11:55 PM 37.4 °F 17.6 °F 45% 30.03 in 10.0 mi North - - N/A   Clear